Wind_Speed
9 9 9 10 10 10 10 10 9 10 10 10 10 10 9 8 7 5 5 4 3 3 3 3 3 3 3 3 3 3 4 3 3 3 2 2 2 3 3 4 5 6 8 8 10 11 12 12 13 14 14 14 13 13 14 14 13 13 13 13 13 12 12 11 11 11 12 12 13 13 12 11 11 12 12 13 14 14 14 13 12 12 11 10 9
10 10 10 10 11 10 10 10 10 10 10 9 9 9 8 8 7 7 6 5 4 3 3 4 4 4 4 3 3 3 3 3 2 2 1 2 3 4 5 6 7 8 9 10 12 13 14 14 15 15 15 14 14 14 14 14 14 13 13 13 13 12 11 11 10 11 11 12 13 13 13 12 12 12 13 13 14 14 14 14 14 13 12 10 9
12 12 12 12 11 11 10 10 10 9 9 8 8 8 8 8 8 8 8 6 5 4 4 4 4 4 4 4 3 2 2 2 1 0 1 3 4 6 7 8 9 10 11 12 13 14 15 15 15 15 14 14 14 14 14 15 15 15 14 14 14 13 13 12 11 10 11 11 12 13 13 14 14 13 13 13 14 15 15 15 15 14 13 12 9
13 13 13 12 12 11 11 11 11 10 9 9 9 9 10 10 10 9 9 8 7 6 5 5 5 5 5 4 4 3 2 2 1 2 3 4 6 8 9 10 11 12 12 13 13 14 14 15 15 15 14 13 13 14 15 16 17 17 17 17 16 16 15 15 13 12 11 11 12 13 14 14 14 14 14 13 14 15 15 15 16 15 14 13 11
12 13 14 13 13 13 13 13 12 11 11 10 11 11 11 10 10 9 8 8 8 7 7 7 6 6 6 5 5 4 3 3 3 4 5 6 7 8 10 11 12 12 12 13 13 14 14 15 15 15 14 13 13 14 15 16 17 18 19 19 18 18 17 17 16 15 13 12 13 13 13 14 14 14 14 13 13 14 15 15 15 15 14 13 12
11 12 13 13 13 14 14 13 12 12 12 12 13 12 12 11 9 9 9 9 9 8 8 8 8 7 7 7 6 5 5 5 5 5 6 7 8 9 10 11 12 13 13 13 14 14 15 15 15 14 13 13 13 14 15 17 18 19 19 19 19 18 18 18 18 17 16 14 13 13 13 14 14 15 14 14 14 14 15 15 15 15 14 13 12
11 11 12 12 13 13 14 13 13 14 14 14 13 13 12 11 10 10 9 9 10 9 9 9 9 9 9 8 7 7 6 6 6 6 7 7 9 10 11 11 12 13 13 13 14 15 15 15 15 14 13 13 14 15 16 18 19 19 19 19 19 18 18 17 18 18 17 16 15 15 14 14 14 15 15 15 14 14 14 14 14 15 15 12 12
11 11 12 12 12 12 13 14 13 13 13 12 11 12 12 11 11 10 9 9 10 10 10 10 10 10 10 9 9 8 8 8 8 8 8 8 9 11 12 12 12 12 13 14 15 15 16 15 15 14 13 14 15 16 17 18 18 19 19 19 19 18 18 17 18 18 18 17 17 16 16 15 15 15 16 16 16 15 14 13 13 15 16 14 13
13 13 12 12 12 12 13 13 12 11 11 11 11 12 12 11 11 10 9 9 9 10 10 11 11 11 11 10 10 10 9 9 9 9 9 9 10 12 13 13 13 12 13 14 15 15 15 15 14 13 13 14 14 16 17 17 17 18 18 18 18 18 18 18 18 18 18 18 18 18 17 17 16 16 17 17 17 17 16 14 13 14 17 17 15
15 14 12 12 13 13 13 13 12 12 12 12 12 12 12 11 11 11 11 10 10 10 11 12 12 12 11 11 11 11 11 10 10 9 10 10 11 12 13 13 13 12 12 13 14 15 15 15 14 13 13 14 15 15 16 16 17 17 17 18 18 18 18 18 18 18 18 18 18 18 18 18 17 17 17 18 18 19 17 16 15 14 15 16 16
16 15 14 14 14 14 13 13 13 13 13 14 14 14 14 13 13 12 12 12 11 11 12 12 12 12 12 13 12 12 12 11 11 10 10 11 12 13 14 13 12 12 12 13 14 14 15 14 14 13 13 14 15 16 17 18 18 18 18 18 18 19 19 19 19 18 19 19 18 18 18 18 18 18 18 19 19 20 19 18 17 15 15 15 15
16 16 16 16 15 14 12 13 15 14 13 14 16 16 16 15 15 14 14 13 13 12 12 13 12 13 13 13 13 13 13 13 12 11 11 12 13 13 13 13 11 11 12 12 13 14 14 14 14 14 14 14 15 16 17 18 19 19 20 20 20 20 20 20 20 20 19 19 19 19 19 19 19 19 19 19 20 21 21 19 18 16 15 13 13
17 16 17 18 17 15 14 14 16 16 15 15 16 17 17 17 16 16 15 14 14 13 13 13 13 14 15 14 14 14 14 14 12 12 13 14 14 13 13 12 12 12 12 12 12 12 13 14 15 15 15 16 17 17 17 18 19 19 20 21 22 22 22 22 22 22 21 20 20 20 20 19 19 19 20 20 20 21 21 21 19 17 15 13 12
19 19 19 19 18 17 15 14 17 18 17 17 17 18 18 18 18 17 16 16 15 15 15 15 15 16 16 15 15 15 15 14 13 13 15 15 14 13 12 12 12 12 12 12 12 11 12 14 16 17 17 18 19 20 19 18 19 20 21 22 23 23 23 24 24 24 23 23 22 22 22 21 21 21 21 21 21 21 22 22 21 20 18 16 15
20 20 20 18 18 18 16 15 18 19 19 18 19 20 19 20 20 19 18 18 17 17 17 17 17 18 17 16 15 15 15 15 14 15 16 16 14 13 12 12 12 12 11 11 12 12 13 15 16 16 16 17 18 19 18 18 20 22 23 23 23 24 24 24 24 24 25 25 25 25 25 24 23 23 23 22 22 23 23 23 23 22 21 20 20
18 19 19 18 18 19 16 15 18 19 19 18 19 20 20 21 22 21 20 19 18 18 18 18 19 19 18 17 16 16 16 16 15 16 16 15 12 11 12 11 11 11 11 11 12 13 14 14 13 14 15 16 17 18 18 18 19 22 23 24 24 24 24 23 22 23 24 25 25 26 26 25 25 24 24 24 24 25 25 24 24 24 23 23 23
20 19 19 20 20 20 18 17 18 18 17 17 17 18 19 20 21 21 19 17 17 17 18 18 19 19 18 17 17 17 17 16 16 15 14 12 10 9 9 9 9 10 11 11 12 13 14 13 12 13 15 16 17 18 19 19 19 21 23 24 25 26 26 24 22 21 22 23 24 25 26 26 26 26 26 26 27 27 26 25 24 25 24 24 24
20 18 19 22 22 21 21 20 19 18 17 17 17 17 17 17 17 17 15 15 15 16 17 18 18 18 18 17 17 17 16 16 15 13 11 10 8 7 6 7 8 10 10 10 10 11 13 13 13 14 16 18 19 19 20 20 21 22 23 25 27 28 29 27 24 23 23 23 24 25 25 26 26 27 28 29 30 29 28 26 25 24 24 24 24
20 17 19 22 22 22 23 21 20 19 17 17 17 17 16 15 15 13 13 13 13 14 14 15 16 16 16 15 14 14 14 13 12 10 9 8 7 5 6 6 7 9 10 10 11 12 13 14 14 16 18 19 20 21 21 22 22 23 25 26 28 29 30 29 27 24 23 24 25 25 25 25 24 25 27 29 29 28 27 27 26 25 24 24 24
18 17 18 20 21 21 22 22 21 20 18 18 18 16 14 13 13 11 10 10 9 10 11 12 12 12 12 11 12 12 12 11 10 9 8 7 6 6 6 6 7 9 10 11 12 13 14 15 16 17 19 20 21 22 23 23 24 25 26 27 29 30 30 30 29 26 25 25 25 25 25 25 25 25 26 27 27 26 26 26 26 26 25 25 25
17 16 15 16 17 19 21 23 23 22 21 21 20 17 14 12 11 10 9 8 7 8 8 9 9 8 9 10 11 11 12 10 9 8 8 7 6 6 6 7 8 8 9 11 12 13 15 16 18 19 20 21 22 23 23 24 26 27 27 29 30 32 32 32 30 29 27 26 25 25 27 28 28 26 26 26 26 26 27 26 26 26 26 26 26
20 16 15 15 15 17 21 25 25 24 24 23 22 19 15 12 10 9 9 7 6 7 7 7 7 7 8 9 10 11 11 10 8 8 8 7 6 6 6 8 9 9 9 10 12 14 16 18 19 20 21 22 23 24 24 26 27 29 29 29 31 33 34 33 32 30 28 26 25 26 28 29 29 28 26 26 26 27 27 27 27 27 28 28 27
23 18 19 19 18 18 23 27 29 28 26 25 24 21 16 13 11 10 9 7 6 6 7 7 6 7 8 9 10 11 10 9 8 8 8 7 7 7 7 8 8 9 10 11 13 15 17 19 20 21 22 23 24 26 27 28 30 31 30 30 32 33 34 34 32 31 28 26 26 27 29 30 30 29 28 27 27 28 29 29 28 28 29 30 29
22 22 24 24 21 21 22 26 30 30 27 26 24 22 18 15 12 11 10 9 8 8 7 7 6 7 8 8 10 11 10 9 9 8 8 7 8 8 8 8 8 9 11 13 15 16 18 19 21 22 24 26 27 29 30 32 32 33 33 32 32 33 35 35 33 31 30 28 27 28 30 31 31 30 30 29 29 29 29 30 30 30 30 30 31
25 25 27 27 25 24 21 23 29 30 28 25 24 23 20 17 14 12 11 11 11 10 9 8 7 7 7 9 10 10 10 9 9 9 8 8 9 9 9 9 9 9 11 14 15 16 17 19 21 23 26 28 30 31 33 34 34 34 34 33 32 33 35 36 35 33 31 30 29 29 30 31 32 32 32 32 31 30 30 31 32 32 32 32 32
27 27 29 29 28 27 23 23 28 30 29 26 25 24 22 19 17 15 14 14 13 12 10 10 10 8 8 10 11 11 10 10 10 10 9 8 8 8 9 10 10 10 10 12 14 16 17 19 21 24 26 28 31 33 35 36 35 36 36 34 33 34 35 38 38 35 32 31 30 29 30 31 33 33 34 33 33 32 32 32 33 34 35 35 35
28 27 29 29 29 29 26 25 26 28 29 27 27 26 24 21 19 17 16 16 15 14 12 12 12 10 10 11 12 12 12 11 11 11 9 8 8 8 10 11 11 9 9 11 14 17 19 21 23 25 27 29 32 34 36 37 36 37 38 36 35 35 36 39 40 39 36 33 31 30 30 32 34 35 35 34 34 34 34 34 35 36 37 37 36
29 28 30 30 31 30 29 28 28 28 29 29 29 28 26 23 21 19 19 18 18 16 14 13 13 12 11 12 13 14 13 12 12 11 10 9 9 9 10 10 9 10 11 14 16 19 22 24 26 28 29 30 33 36 38 39 39 39 39 38 38 38 38 40 42 42 41 37 34 33 33 33 35 37 36 35 34 35 35 36 37 37 37 37 36
31 32 33 33 33 33 33 33 33 31 31 30 30 29 27 24 22 21 21 20 19 18 16 14 14 13 12 13 16 16 14 14 13 11 11 12 11 10 9 8 10 13 16 18 19 21 24 26 29 31 32 33 35 38 40 42 42 42 42 41 41 42 40 41 43 43 42 41 38 35 34 35 36 38 38 36 35 36 38 39 39 38 37 37 36
31 35 37 37 37 38 38 36 35 34 33 32 30 28 27 25 23 23 23 22 21 20 18 16 14 14 15 16 18 18 16 15 14 13 13 14 13 11 10 10 12 15 18 20 21 22 25 27 29 31 33 34 37 39 41 43 45 47 47 46 45 44 42 41 43 41 39 40 38 35 35 36 38 39 40 38 38 39 40 40 40 40 40 39 38
35 39 41 41 42 41 38 36 35 35 33 32 32 31 28 25 24 24 25 24 24 22 20 18 15 15 17 19 19 19 19 17 15 15 16 15 14 13 13 14 14 16 19 21 21 23 25 27 27 29 32 35 38 41 42 44 47 49 49 47 44 42 41 42 42 39 37 37 36 34 36 37 38 39 40 39 39 41 42 43 43 42 42 42 41
41 43 43 43 43 41 39 37 36 36 36 34 33 32 30 28 25 25 26 26 26 24 22 20 18 17 19 21 21 20 20 19 17 16 17 17 16 16 16 17 17 18 20 22 22 24 26 27 28 29 32 35 38 41 44 45 47 48 47 44 41 40 41 42 41 38 34 33 33 34 36 37 38 39 40 39 39 40 43 46 47 45 45 44 43
44 46 47 46 45 44 44 43 40 39 40 38 36 34 33 31 29 28 28 29 28 26 24 22 21 20 21 22 22 21 20 20 18 18 19 18 17 18 18 19 20 21 23 24 24 26 28 30 30 31 34 37 39 42 45 46 48 49 47 43 41 40 39 40 39 36 33 32 33 35 36 36 38 40 41 42 41 40 42 46 49 48 47 45 43
48 50 49 47 48 48 46 43 42 41 42 41 39 37 37 36 34 32 32 31 30 28 27 25 23 22 22 23 22 21 21 20 20 20 20 19 18 19 20 22 23 24 26 26 27 28 31 32 32 33 36 39 41 43 45 46 48 50 48 44 40 39 38 38 37 35 34 33 34 37 38 38 39 41 42 42 41 42 44 48 51 47 42 39 38
49 50 48 47 48 48 44 41 40 40 40 40 40 40 40 39 37 35 34 33 32 30 30 28 25 24 24 24 22 22 22 21 21 21 21 20 20 20 22 24 26 27 29 29 29 30 33 34 35 36 38 41 42 43 45 46 48 50 48 43 40 39 37 36 36 35 36 36 37 39 40 40 40 41 43 43 42 43 45 48 50 44 36 34 35
46 45 44 43 44 44 43 42 41 39 37 37 40 42 42 41 40 38 36 35 34 33 32 30 27 26 26 24 23 23 23 22 22 22 21 21 21 21 23 26 28 29 31 31 31 33 35 36 37 38 40 42 43 44 45 46 47 49 46 42 40 39 37 36 37 37 38 38 39 41 41 40 40 41 42 42 42 44 45 45 44 40 35 35 37
43 42 41 40 41 43 43 42 43 42 38 36 39 43 43 42 42 40 39 38 36 35 34 32 29 27 27 25 24 24 24 23 23 22 22 23 23 24 27 29 30 32 34 34 34 36 37 38 38 40 41 43 44 45 45 46 47 48 47 44 43 41 39 38 39 40 41 41 40 41 41 40 39 39 41 43 43 43 42 39 37 36 37 39 41
46 46 46 43 41 43 48 47 44 43 40 36 38 42 44 44 43 41 41 41 39 37 36 34 31 28 27 25 24 25 24 23 23 24 25 26 27 28 31 32 33 36 37 37 39 40 40 39 40 42 42 43 44 45 46 47 47 47 47 46 45 43 40 40 41 42 43 43 42 41 41 39 38 38 40 41 39 36 34 34 35 37 40 43 44
52 52 53 51 47 49 55 56 49 45 43 41 40 42 44 46 44 43 44 44 42 39 37 35 32 29 27 26 25 25 25 24 25 27 28 29 31 32 34 35 37 39 41 42 43 43 42 42 43 43 43 43 44 45 47 47 47 47 47 47 46 44 42 42 42 43 45 45 43 42 42 41 40 39 37 34 33 35 36 37 39 40 42 44 45
60 60 59 56 55 57 62 62 56 51 51 51 49 47 48 49 47 45 47 47 45 42 39 37 34 31 29 28 27 27 27 27 29 30 31 32 34 35 36 38 40 42 44 45 46 44 43 43 45 45 44 43 44 46 47 48 48 47 47 46 46 45 45 44 43 43 44 44 43 43 43 42 39 37 35 34 37 40 40 40 41 42 43 44 45
55 62 66 64 62 62 65 65 62 59 59 59 56 52 51 52 50 47 48 49 47 44 41 39 36 32 30 29 28 28 29 30 32 33 34 36 37 37 38 40 42 44 46 47 48 46 44 44 45 46 45 44 45 47 48 48 48 47 47 46 46 46 46 45 44 44 44 43 42 41 40 37 35 34 36 39 42 42 42 42 43 43 44 44 45
40 46 58 67 67 64 65 65 64 64 64 61 56 52 52 54 52 49 49 50 48 46 44 40 37 33 31 29 29 31 32 33 34 35 36 38 38 38 39 40 42 45 47 49 50 49 49 48 47 45 44 44 46 47 48 49 48 47 47 47 47 47 47 46 44 43 42 41 40 38 36 34 33 35 39 43 44 43 43 43 44 44 44 46 47
39 36 43 57 65 66 67 67 67 68 67 63 58 54 52 53 53 52 51 51 50 48 46 43 39 35 32 31 33 34 35 35 36 37 40 41 39 38 39 41 44 47 49 51 52 51 50 47 42 40 42 44 46 47 48 48 48 47 48 48 47 46 45 44 43 41 39 38 38 37 36 35 35 39 44 45 44 44 44 44 44 45 45 47 48
45 41 39 45 53 58 61 64 65 65 64 61 58 53 50 51 55 55 54 52 51 50 48 45 41 36 34 36 37 37 38 38 39 40 41 41 39 38 40 43 46 48 50 51 50 47 43 39 37 39 42 45 46 47 48 47 47 47 48 47 45 44 43 42 41 39 37 37 37 39 40 39 39 44 48 46 43 44 45 45 45 45 46 48 49
50 48 46 46 48 51 53 56 56 54 54 55 54 49 48 52 55 56 56 53 51 51 50 46 42 38 38 39 40 40 41 41 41 40 39 39 39 40 42 45 47 47 48 47 45 41 38 38 40 42 44 46 47 47 46 46 47 47 46 45 43 42 41 41 40 39 38 37 37 39 41 41 42 46 48 45 43 44 45 45 45 46 48 49 50
54 52 51 51 52 52 54 55 53 49 50 51 49 47 49 52 52 53 55 54 51 50 49 46 42 41 42 41 40 41 41 40 39 38 38 39 40 42 45 46 46 44 44 43 41 39 39 40 42 44 46 48 48 46 45 46 47 47 45 43 42 41 40 40 39 39 38 38 37 37 38 40 43 46 46 44 43 44 44 44 45 47 48 48 47
57 54 52 53 55 55 55 55 54 55 54 51 48 48 48 49 52 54 54 53 51 47 46 46 44 43 43 42 40 40 39 39 39 40 40 40 43 45 46 45 43 42 41 40 40 40 40 42 44 46 48 49 48 46 46 46 47 46 43 41 40 41 41 40 40 40 39 39 38 38 39 42 45 47 46 43 43 43 44 45 46 47 46 45 44
56 54 51 51 53 53 52 51 52 57 57 52 51 53 50 46 51 55 54 51 49 46 45 46 46 44 43 42 40 39 39 40 41 41 42 43 45 45 44 42 41 40 40 40 41 41 42 44 46 47 48 49 48 47 46 46 45 42 40 40 40 41 41 41 41 41 40 39 39 39 41 44 46 46 45 43 43 44 45 45 45 44 43 43 43
53 54 52 51 52 52 51 50 51 56 58 53 52 56 54 47 45 50 53 50 46 44 45 46 46 45 44 42 40 40 40 42 42 42 43 44 43 42 42 41 40 39 40 42 42 43 44 46 47 48 49 49 49 47 45 43 41 40 40 40 41 41 41 41 41 42 41 40 40 41 43 45 46 45 45 44 44 44 44 43 42 42 42 43 43
49 51 51 52 54 55 54 52 51 56 60 58 53 54 55 49 42 43 48 46 42 41 43 44 45 45 44 42 41 41 42 42 43 43 43 42 41 41 41 41 40 40 41 43 43 45 47 47 47 48 49 48 46 44 42 40 40 40 40 41 41 41 41 41 41 42 42 41 41 42 44 45 45 45 45 45 44 42 41 40 41 41 42 42 41
46 50 53 54 55 56 57 55 53 55 60 60 55 51 50 46 40 38 39 38 38 40 42 43 44 44 43 43 43 42 42 42 43 43 41 41 41 42 42 42 42 42 43 44 45 47 48 47 47 48 47 45 43 41 40 39 39 40 40 41 41 41 41 41 41 41 41 41 42 43 44 44 45 44 43 42 40 39 39 40 41 42 41 40 37
Wind_Direction
210 204 199 189 185 187 187 186 182 180 180 179 178 176 174 174 178 189 202 204 197 193 186 177 170 166 165 160 153 132 113 109 99 83 64 45 14 354 354 348 342 339 339 336 328 322 321 321 319 318 318 319 320 319 319 319 320 320 320 317 314 314 316 317 319 323 325 325 326 326 328 329 331 334 336 337 338 337 336 336 335 334 328 321 318
212 208 206 197 193 195 194 194 191 191 193 191 190 188 188 187 188 199 213 218 212 204 199 192 183 176 175 170 160 139 121 119 108 88 53 349 338 335 338 336 333 333 332 326 319 317 317 316 315 315 317 320 322 321 320 319 319 318 315 311 310 311 313 310 310 315 320 323 323 323 322 323 325 329 332 334 333 333 332 330 332 335 330 323 319
216 211 209 204 201 201 202 203 201 201 203 205 205 201 204 206 201 206 214 219 221 215 209 204 197 189 186 181 170 158 147 154 166 101 330 322 323 325 329 330 330 331 328 322 319 318 317 316 314 312 314 318 322 322 322 322 322 321 319 318 317 316 315 312 309 310 315 318 319 319 320 320 321 324 327 330 329 328 328 326 329 332 327 324 320
221 215 210 208 206 205 207 210 210 210 209 211 216 214 215 219 215 215 218 219 222 221 216 211 208 205 199 193 190 194 199 210 246 287 305 312 317 322 328 330 331 331 327 325 324 323 321 320 316 313 314 316 319 321 324 326 326 325 326 325 323 320 319 317 314 311 310 313 314 316 317 317 318 320 322 326 325 323 324 324 327 328 323 322 320
228 223 216 212 211 211 213 214 213 214 216 217 223 224 225 228 228 224 222 222 222 221 219 218 218 218 214 210 212 219 231 248 268 288 302 311 317 323 328 330 330 329 328 328 328 326 325 323 321 318 317 316 316 318 321 324 325 326 328 326 323 321 320 318 315 312 308 308 309 310 313 313 314 315 316 320 319 318 320 322 326 326 322 319 318
229 229 224 219 219 220 220 221 219 218 220 221 226 231 232 234 235 230 225 225 226 224 224 226 227 227 226 227 230 237 247 258 272 286 298 308 315 320 324 325 325 326 328 330 330 330 329 328 326 324 321 317 314 315 317 319 321 323 325 323 321 319 318 316 312 309 305 301 301 302 305 307 309 310 310 312 314 314 316 320 325 327 326 324 322
228 228 229 225 221 223 226 226 223 222 222 221 224 229 234 235 235 233 229 227 230 230 229 234 237 236 237 239 242 248 257 263 270 281 291 303 312 315 317 318 320 323 327 331 333 334 334 333 331 328 323 318 315 314 316 318 320 322 321 320 318 316 314 312 309 306 302 299 297 297 299 301 303 305 305 306 309 310 313 317 322 324 327 328 326
232 226 227 229 223 220 227 229 227 228 228 226 224 225 227 229 232 235 235 233 235 237 236 240 244 244 245 248 250 255 263 267 272 283 294 307 313 312 313 315 318 321 326 331 334 335 335 336 334 329 325 320 317 316 317 320 321 321 321 320 319 316 313 311 308 305 301 298 298 297 298 299 300 301 303 305 306 307 310 314 315 319 323 324 320
233 231 227 231 231 227 230 233 233 234 236 235 228 227 227 225 228 234 238 236 236 240 242 244 248 251 252 252 254 261 267 271 278 290 303 312 313 308 309 313 315 319 324 328 331 331 331 332 331 329 326 323 321 321 321 322 322 322 322 321 320 316 313 311 309 307 304 301 299 298 298 297 299 300 303 305 306 306 308 310 310 313 317 316 315
231 235 234 235 239 240 241 244 245 243 243 244 238 235 233 228 226 229 232 233 231 236 241 246 251 254 254 254 257 263 270 275 282 295 306 311 310 306 306 310 311 314 320 323 324 323 323 325 326 325 325 324 323 323 322 323 323 322 321 320 318 316 314 312 310 309 307 305 301 298 297 297 298 300 303 305 306 306 308 308 306 307 309 309 311
230 237 241 242 243 246 251 256 257 251 249 251 250 245 241 235 230 227 229 232 231 234 240 246 252 255 256 257 260 265 270 275 282 291 301 307 308 306 305 307 307 309 314 316 315 316 318 322 324 325 325 325 323 323 323 324 324 322 319 317 315 313 313 312 311 310 308 306 303 299 297 296 298 300 303 305 307 306 307 307 306 306 308 309 311
230 236 244 246 245 247 253 259 259 254 251 253 255 254 250 245 240 235 233 233 234 235 239 244 249 253 256 257 261 266 269 273 279 286 293 301 305 306 305 303 302 302 305 308 309 313 319 323 325 324 322 320 318 319 320 320 319 317 315 314 312 311 310 310 310 309 309 307 305 301 297 296 297 298 300 303 305 305 305 305 304 304 305 307 308
235 236 240 245 248 248 249 254 254 252 250 250 254 256 256 254 251 247 242 238 239 238 240 243 246 250 254 257 261 265 268 272 276 282 289 297 302 304 302 299 297 297 300 304 307 311 319 322 321 320 318 318 318 318 318 318 318 318 317 314 311 309 307 306 306 306 306 306 305 302 299 296 294 295 297 299 302 303 304 303 301 298 298 298 297
235 234 235 239 246 246 241 243 247 246 245 246 247 247 249 251 251 250 248 245 244 243 243 244 246 249 253 257 261 264 268 272 275 280 286 295 300 300 296 293 292 295 299 302 302 307 316 320 320 321 323 324 323 321 321 322 322 323 323 321 318 313 307 303 301 301 302 302 303 303 301 298 295 294 295 297 299 300 300 299 297 295 294 293 292
236 236 235 233 237 239 232 233 240 242 243 243 242 241 240 242 244 244 245 245 245 245 246 247 249 252 256 259 262 264 268 273 276 280 286 292 296 294 290 287 290 293 296 297 298 305 316 322 324 327 331 333 331 330 327 325 323 324 328 329 327 324 320 313 305 300 299 300 300 302 302 299 295 294 293 293 296 298 297 296 296 295 294 294 295
239 237 234 229 231 233 229 229 236 240 242 241 239 238 235 235 238 240 242 244 247 248 250 251 253 256 259 261 262 264 269 273 276 280 285 289 289 286 285 286 290 291 290 293 299 307 316 322 326 330 334 338 339 338 336 332 329 329 332 333 332 332 335 332 320 309 304 302 301 302 303 299 292 290 290 290 291 295 295 293 293 294 295 297 298
237 235 230 229 229 231 230 229 233 235 236 236 237 237 235 235 238 240 242 245 247 249 250 252 254 256 257 259 261 265 270 273 276 280 281 281 280 281 285 288 289 289 291 296 301 306 314 321 326 327 331 335 337 338 339 338 336 334 333 332 333 334 338 339 333 324 317 312 308 307 307 303 293 287 287 287 288 291 291 288 288 291 294 296 299
235 231 226 227 228 231 231 228 228 230 230 233 236 238 237 236 236 237 238 239 241 244 248 251 254 256 258 261 265 268 270 271 273 274 271 270 275 277 278 282 287 293 298 300 301 307 317 324 326 326 328 332 335 337 338 338 335 333 331 329 329 330 332 334 333 328 322 316 311 308 309 307 299 291 288 288 287 287 285 283 283 285 289 292 296
236 230 222 225 229 232 233 228 226 228 231 233 235 237 236 234 232 230 229 232 238 243 248 252 255 259 261 263 265 265 266 267 265 262 261 264 268 265 263 274 288 296 299 300 303 310 319 323 325 327 329 331 334 335 336 335 332 329 327 326 325 326 327 328 329 326 322 317 311 306 305 307 304 298 295 292 288 284 281 280 280 281 284 288 292
228 223 220 227 234 235 235 233 230 229 231 234 236 235 232 230 228 224 222 227 235 240 245 250 253 257 260 259 258 259 259 259 257 257 258 257 254 256 266 279 288 292 296 300 306 312 319 323 326 328 331 332 332 332 331 329 327 325 325 324 323 324 325 325 325 324 322 319 314 306 303 304 305 305 302 297 291 284 283 282 280 280 282 285 289
211 212 221 231 241 243 239 238 239 239 240 242 243 240 231 227 225 221 219 220 228 237 242 249 255 257 258 255 251 251 252 252 253 256 254 248 251 261 273 284 289 289 292 300 309 317 321 324 327 330 332 332 330 329 328 326 325 324 323 323 322 322 322 323 323 322 320 319 315 310 307 307 307 306 305 300 292 286 284 283 282 281 281 283 286
203 212 230 232 238 249 248 245 247 252 253 250 249 246 236 227 223 220 218 215 225 240 247 255 262 261 257 256 252 248 247 248 249 250 247 245 253 266 275 282 286 287 290 300 311 317 321 324 326 329 332 331 328 328 328 327 327 326 325 323 322 321 321 322 322 321 319 316 313 312 312 313 311 309 308 304 296 289 285 284 283 283 283 283 285
211 223 243 242 238 247 252 250 251 254 255 252 250 249 241 231 225 222 219 215 226 246 259 265 271 265 254 251 251 248 246 245 242 240 241 248 261 269 272 274 278 285 293 304 312 316 319 322 324 326 327 326 325 326 327 328 328 327 326 324 323 322 321 321 322 321 320 315 311 311 314 315 314 312 311 308 301 293 288 285 284 283 284 284 284
226 232 244 246 240 243 250 251 249 250 253 252 251 248 242 237 233 228 223 223 233 248 262 273 279 271 256 248 248 247 242 240 236 234 240 255 266 268 267 265 269 284 296 304 311 314 317 320 323 324 324 325 326 327 330 329 325 325 326 326 325 323 321 322 323 322 319 315 311 309 311 313 313 312 312 310 306 299 291 286 284 283 284 285 284
228 231 239 244 243 245 249 247 243 244 248 249 248 245 241 239 238 234 229 229 237 246 255 271 282 282 267 250 243 241 237 235 235 239 247 257 264 266 265 264 270 284 297 304 309 313 317 321 324 324 325 327 328 330 331 328 323 324 326 325 324 323 322 323 326 324 319 314 311 309 309 310 311 311 311 311 310 305 297 289 285 285 286 287 287
227 232 238 241 245 247 247 240 236 238 243 247 245 240 237 237 237 235 233 234 239 244 251 263 274 283 276 256 245 238 234 233 238 247 252 253 254 257 262 269 278 288 297 304 310 315 320 323 325 325 326 328 329 329 328 326 324 324 325 325 324 324 323 324 325 325 321 315 310 308 308 309 309 310 310 312 312 308 301 294 289 287 288 289 289
222 230 239 242 247 250 246 239 236 238 242 245 243 238 233 233 233 232 234 237 241 244 248 255 265 276 276 262 250 239 235 238 242 247 248 243 241 248 260 271 281 291 300 307 313 318 322 323 323 324 326 328 328 327 325 324 326 325 324 326 326 324 323 323 322 322 320 315 308 306 307 307 309 309 308 311 313 310 304 297 292 289 288 289 289
222 230 240 244 246 248 250 249 249 247 244 242 242 240 235 231 229 230 233 237 241 243 243 249 258 267 273 265 254 244 239 242 242 242 244 241 239 243 250 264 280 294 304 310 316 319 320 321 323 324 327 328 327 325 323 324 326 326 324 325 324 321 320 321 320 318 317 313 307 304 306 308 309 308 307 309 311 311 307 301 295 291 288 287 287
228 234 240 243 242 244 250 254 258 257 249 243 242 241 239 237 231 230 233 236 240 242 241 243 250 260 268 264 257 250 244 243 243 242 243 242 242 238 232 252 286 301 307 311 316 318 318 320 324 326 328 328 324 322 322 324 325 325 323 323 322 321 319 319 319 317 314 311 307 305 307 308 308 307 306 306 307 308 307 302 297 293 289 287 285
227 232 237 239 239 241 245 250 255 256 250 244 244 243 243 243 238 236 237 238 241 243 242 240 242 253 262 261 257 254 250 247 243 239 241 243 242 237 235 258 288 300 305 309 314 315 316 319 323 325 325 324 321 318 319 322 323 322 320 321 324 322 319 317 317 314 310 307 305 305 306 307 307 306 305 304 306 306 305 302 298 294 291 289 287
226 228 233 236 236 236 239 243 249 253 250 245 247 248 248 248 249 249 247 242 242 243 240 239 238 245 255 258 257 256 254 250 242 236 240 242 242 248 259 273 285 293 298 303 309 310 312 316 319 320 320 319 317 316 318 321 320 319 320 323 324 319 315 315 315 312 307 303 301 302 304 305 305 305 304 304 305 305 303 300 297 293 289 287 284
232 232 236 240 240 239 241 243 245 249 250 248 249 251 254 257 260 260 254 248 247 244 240 240 238 238 248 255 256 255 253 250 241 235 236 240 248 262 272 277 282 288 292 298 302 305 308 311 312 313 315 315 314 315 318 320 319 319 321 323 319 315 314 314 313 310 305 302 300 300 302 303 303 303 302 303 304 303 301 299 296 290 285 282 280
236 237 239 241 242 244 247 246 242 243 249 251 251 253 258 262 264 262 257 252 252 249 244 241 239 238 244 250 252 251 249 245 239 234 234 242 256 268 274 277 281 285 289 293 298 302 305 307 309 311 312 311 312 315 318 319 318 319 321 320 316 315 315 314 312 309 305 303 301 299 300 302 301 301 302 303 303 302 299 296 292 286 282 278 275
235 238 239 239 241 246 248 246 241 242 247 251 253 255 258 260 260 261 259 256 254 251 248 245 243 240 241 244 246 246 242 239 237 235 237 245 260 270 274 279 282 286 289 293 297 301 304 305 307 309 309 309 311 315 317 318 319 319 319 318 316 314 313 312 312 311 308 307 303 300 300 299 300 301 302 302 302 301 300 298 292 287 286 282 278
236 238 237 236 239 244 247 248 247 247 248 251 254 256 258 258 259 260 258 256 254 252 250 249 246 243 241 240 240 240 237 237 238 239 242 249 260 270 275 280 284 287 290 294 298 301 303 304 305 306 306 307 311 314 316 317 318 318 317 315 313 311 309 311 313 312 310 309 305 302 301 299 298 299 298 299 301 301 302 301 294 289 292 294 291
237 239 239 238 240 243 244 246 248 248 250 252 253 255 257 258 259 259 256 253 252 251 250 249 247 243 240 237 235 235 236 237 241 244 247 253 261 269 275 280 284 287 290 293 296 298 300 302 304 304 304 306 310 313 315 316 317 318 318 316 314 312 312 313 313 311 310 308 305 303 302 300 298 297 297 299 300 300 301 300 293 288 293 299 298
234 238 241 242 244 245 244 243 245 245 246 249 250 251 255 257 257 257 254 251 251 250 249 249 247 243 238 234 232 234 238 241 246 251 255 260 266 271 275 279 283 286 288 290 292 295 297 300 302 302 302 305 309 311 314 315 315 317 319 319 317 317 318 317 315 312 310 308 306 303 302 300 299 298 298 299 300 301 302 302 297 294 296 298 298
231 234 236 237 238 241 243 244 244 242 241 242 243 246 251 254 255 255 252 249 248 247 246 246 247 244 238 231 230 235 242 247 252 257 262 266 270 273 276 280 283 285 286 289 292 293 296 299 300 300 300 303 307 310 311 313 314 315 316 318 319 319 318 316 314 312 310 308 306 304 302 301 301 300 300 301 302 305 307 307 305 301 298 297 296
229 232 235 234 233 237 244 247 246 241 236 235 239 246 251 253 253 252 250 248 246 244 244 244 246 245 238 232 233 239 245 250 255 259 264 267 270 275 279 281 283 285 288 291 293 295 297 300 300 299 299 301 305 308 308 308 310 313 314 317 318 317 315 314 313 311 309 306 304 302 301 301 301 301 302 305 307 309 310 309 306 302 298 297 298
230 230 232 233 233 239 248 253 251 246 241 242 247 252 252 250 250 249 248 247 244 241 240 241 243 243 239 235 237 242 246 252 256 260 264 267 270 275 279 280 282 286 289 290 292 294 296 299 301 299 297 300 304 306 305 304 307 310 313 315 315 314 313 313 312 310 309 306 304 301 300 301 301 302 303 307 310 310 309 306 303 300 299 299 299
235 232 232 232 234 239 246 252 254 251 248 249 251 250 245 243 245 246 245 245 243 239 238 238 240 241 240 238 239 243 248 253 256 260 265 268 272 276 279 281 283 285 288 291 292 292 292 296 299 297 294 298 303 303 303 303 306 309 312 314 313 312 312 312 311 310 309 307 304 301 300 301 301 302 306 310 311 310 306 303 301 301 301 301 302
248 241 235 232 232 235 240 246 251 251 251 252 252 248 242 238 239 240 241 241 240 238 237 237 238 240 240 239 241 245 249 253 257 262 266 267 270 276 280 283 285 286 288 290 291 291 292 294 296 293 291 296 302 302 301 303 307 310 311 312 311 311 311 311 311 310 309 306 303 300 297 295 296 302 310 313 311 308 304 301 300 300 300 300 301
252 252 243 232 229 231 234 238 243 248 251 251 248 244 238 233 232 234 236 237 238 238 237 237 237 237 238 239 242 245 250 254 258 261 263 265 271 279 283 285 285 286 288 290 292 294 296 296 295 293 294 299 301 300 302 305 308 310 310 310 311 311 310 310 309 309 307 305 302 297 292 288 292 304 313 313 308 304 301 299 298 298 298 300 301
247 251 249 238 231 233 236 236 237 241 244 243 239 238 235 228 226 229 232 234 236 237 237 237 236 236 237 238 241 246 249 253 257 259 262 267 275 282 285 286 286 287 291 296 298 298 298 298 298 298 300 301 301 301 303 306 308 308 308 309 310 309 308 308 307 308 307 306 301 296 291 288 291 302 310 309 303 300 298 297 297 298 300 302 304
248 248 248 244 240 240 241 240 238 240 244 241 235 232 232 228 226 227 229 231 234 236 237 238 236 236 237 239 242 246 248 251 256 261 266 272 278 283 284 285 287 291 296 299 299 297 297 298 300 301 301 301 302 303 305 306 305 305 306 308 308 307 307 307 308 309 309 307 303 299 294 290 291 300 306 305 300 298 297 297 299 300 302 303 304
248 248 247 248 248 247 245 244 242 241 246 247 238 232 233 231 228 227 227 227 231 236 237 236 235 235 238 241 244 248 251 254 258 263 269 275 279 281 282 284 288 293 297 297 294 293 295 297 299 300 300 301 302 303 304 303 302 304 306 307 306 306 306 308 309 310 308 306 304 301 296 292 295 301 304 302 299 298 298 298 301 302 302 303 303
248 248 246 247 250 251 250 250 246 239 241 246 242 236 236 235 230 227 225 225 228 232 234 234 234 235 238 243 247 250 254 257 260 265 270 275 277 278 281 284 287 290 293 292 291 291 293 295 296 297 298 300 301 301 300 300 301 303 305 305 305 305 307 308 309 309 307 306 304 301 296 295 299 302 302 300 298 299 300 302 303 303 303 304 304
248 249 247 246 248 248 250 254 250 241 240 245 241 234 235 239 233 226 222 221 222 226 231 232 234 236 239 242 246 249 253 257 260 264 269 272 275 278 282 285 286 286 288 289 289 290 291 292 294 296 299 300 300 299 298 299 301 303 304 304 305 306 306 307 308 309 308 306 302 298 297 297 300 300 300 300 301 302 305 306 306 305 305 305 306
250 249 248 246 244 243 246 250 250 245 242 244 241 234 233 240 238 225 217 214 215 221 228 232 235 237 239 242 246 249 252 255 259 262 266 270 274 278 282 283 283 284 287 290 291 290 290 290 292 295 299 300 298 297 298 299 301 302 303 304 305 306 306 307 308 308 308 305 301 298 298 298 299 300 301 303 306 308 309 308 306 305 305 306 306
252 251 250 248 244 242 243 245 248 248 243 241 241 237 234 239 238 225 214 209 209 218 227 231 234 237 239 242 246 249 251 254 257 261 266 269 272 275 278 281 282 284 287 291 291 289 288 289 292 296 298 298 297 297 298 300 301 302 303 303 304 305 306 306 307 306 306 304 302 300 300 300 301 303 305 308 309 309 307 305 303 304 305 306 308
256 256 254 252 249 246 244 244 247 248 245 243 243 242 239 239 234 218 206 201 206 217 226 230 233 237 240 243 246 248 251 254 258 262 265 266 268 272 276 280 283 284 287 289 289 289 291 293 295 297 298 297 297 298 299 299 300 301 302 302 303 305 306 306 306 306 305 304 302 301 301 303 304 305 306 306 306 304 303 302 303 305 307 309 310
Height
5913 5914 5915 5916 5916 5917 5918 5919 5920 5921 5921 5922 5923 5924 5924 5925 5926 5926 5927 5927 5928 5929 5929 5929 5930 5930 5930 5931 5931 5932 5933 5934 5935 5936 5936 5937 5937 5937 5937 5937 5937 5937 5937 5937 5937 5937 5936 5936 5935 5935 5935 5934 5933 5933 5932 5931 5931 5930 5929 5929 5929 5928 5927 5926 5926 5926 5925 5924 5924 5923 5922 5922 5921 5921 5920 5919 5918 5918 5917 5916 5915 5915 5915 5914 5913
5913 5913 5914 5915 5916 5917 5918 5919 5920 5921 5921 5922 5923 5924 5924 5925 5926 5926 5926 5927 5928 5928 5929 5929 5930 5930 5930 5931 5931 5932 5933 5934 5935 5936 5936 5937 5937 5937 5937 5937 5937 5937 5937 5937 5936 5936 5935 5935 5934 5934 5934 5933 5932 5931 5931 5930 5930 5930 5929 5929 5928 5927 5926 5926 5925 5925 5924 5924 5923 5922 5922 5921 5920 5920 5919 5918 5917 5917 5916 5915 5914 5914 5913 5913 5913
5912 5913 5914 5915 5916 5917 5918 5919 5919 5920 5921 5922 5923 5923 5924 5925 5925 5926 5926 5927 5928 5928 5929 5929 5930 5930 5930 5931 5932 5932 5933 5934 5935 5936 5936 5937 5937 5937 5937 5937 5936 5936 5936 5936 5935 5934 5934 5934 5933 5933 5932 5931 5931 5931 5930 5930 5929 5929 5928 5928 5927 5926 5926 5925 5924 5924 5923 5923 5923 5922 5921 5920 5920 5919 5918 5918 5916 5916 5915 5914 5913 5913 5912 5911 5912
5911 5912 5913 5914 5915 5916 5917 5917 5918 5920 5921 5922 5922 5923 5923 5924 5925 5925 5926 5927 5927 5928 5928 5929 5929 5930 5930 5931 5932 5932 5933 5934 5935 5936 5936 5936 5936 5936 5936 5936 5936 5935 5935 5934 5934 5933 5933 5933 5932 5931 5931 5930 5930 5930 5930 5929 5929 5928 5927 5926 5925 5925 5924 5924 5923 5923 5922 5922 5922 5921 5921 5920 5919 5918 5918 5917 5916 5914 5914 5913 5912 5911 5910 5910 5910
5910 5911 5912 5913 5914 5915 5915 5916 5917 5919 5920 5921 5921 5922 5923 5923 5924 5925 5926 5926 5927 5927 5928 5928 5929 5929 5930 5931 5931 5932 5933 5934 5935 5935 5936 5936 5936 5936 5936 5935 5935 5934 5934 5933 5933 5932 5932 5931 5931 5930 5930 5929 5929 5929 5929 5928 5928 5926 5925 5925 5924 5923 5923 5922 5922 5921 5921 5921 5921 5920 5920 5919 5918 5917 5917 5916 5915 5914 5913 5912 5911 5910 5909 5908 5908
5910 5911 5912 5913 5914 5914 5915 5916 5917 5918 5918 5919 5920 5921 5922 5922 5923 5924 5925 5925 5926 5926 5927 5928 5928 5929 5929 5930 5931 5932 5933 5933 5934 5935 5935 5935 5935 5935 5935 5935 5934 5933 5933 5932 5932 5931 5931 5930 5929 5929 5929 5929 5929 5928 5928 5927 5926 5925 5924 5923 5923 5922 5922 5921 5920 5920 5920 5920 5920 5919 5919 5918 5917 5916 5916 5915 5915 5913 5912 5911 5910 5909 5908 5907 5906
5909 5910 5911 5912 5914 5915 5915 5916 5916 5917 5917 5918 5919 5920 5921 5922 5922 5923 5924 5924 5925 5926 5926 5927 5927 5928 5928 5929 5930 5931 5932 5933 5933 5934 5934 5935 5934 5934 5934 5934 5933 5932 5932 5932 5931 5931 5930 5929 5929 5928 5928 5928 5928 5927 5927 5926 5925 5924 5923 5922 5922 5921 5920 5920 5919 5919 5918 5918 5918 5917 5917 5916 5915 5915 5914 5914 5913 5912 5911 5910 5908 5907 5906 5906 5905
5908 5910 5911 5912 5913 5914 5915 5916 5916 5917 5917 5918 5919 5919 5919 5920 5921 5921 5922 5923 5924 5925 5926 5926 5926 5927 5928 5928 5929 5930 5931 5932 5932 5933 5933 5934 5934 5933 5933 5933 5932 5932 5931 5931 5930 5930 5929 5929 5928 5927 5927 5927 5927 5926 5925 5925 5924 5923 5922 5921 5920 5919 5919 5918 5917 5917 5917 5916 5916 5916 5915 5914 5914 5913 5913 5912 5911 5911 5910 5909 5908 5906 5904 5904 5904
5907 5908 5910 5911 5912 5913 5914 5915 5916 5917 5918 5918 5918 5918 5918 5919 5920 5920 5921 5922 5923 5924 5924 5925 5926 5926 5927 5928 5929 5929 5930 5931 5931 5932 5932 5933 5933 5932 5931 5931 5931 5931 5931 5930 5929 5929 5928 5928 5927 5927 5926 5926 5925 5925 5924 5923 5923 5922 5921 5920 5919 5918 5917 5916 5916 5915 5915 5914 5914 5913 5913 5912 5912 5911 5911 5910 5909 5909 5908 5908 5907 5905 5903 5902 5902
5906 5907 5909 5910 5911 5912 5913 5914 5915 5916 5917 5917 5918 5918 5918 5918 5919 5919 5920 5921 5922 5923 5923 5924 5925 5925 5926 5927 5928 5928 5929 5929 5930 5930 5931 5931 5931 5930 5930 5930 5930 5930 5929 5929 5928 5928 5927 5927 5926 5926 5925 5925 5924 5923 5923 5922 5921 5920 5919 5918 5917 5916 5915 5915 5914 5913 5913 5912 5912 5911 5911 5910 5910 5909 5908 5908 5907 5907 5906 5905 5905 5904 5903 5901 5900
5904 5906 5907 5909 5910 5911 5912 5913 5914 5915 5915 5916 5917 5917 5918 5918 5918 5918 5918 5919 5920 5921 5922 5923 5923 5924 5925 5926 5927 5927 5928 5928 5928 5929 5929 5930 5930 5929 5929 5929 5929 5928 5928 5928 5927 5926 5926 5926 5925 5925 5924 5924 5923 5922 5921 5920 5919 5919 5917 5917 5916 5914 5913 5913 5912 5912 5911 5910 5910 5909 5909 5908 5907 5907 5906 5906 5905 5905 5904 5903 5902 5902 5901 5900 5898
5902 5904 5905 5906 5908 5910 5911 5912 5912 5913 5914 5914 5915 5916 5917 5917 5917 5917 5917 5918 5918 5919 5920 5921 5922 5922 5923 5924 5925 5926 5926 5926 5927 5928 5928 5928 5928 5928 5927 5927 5927 5927 5927 5926 5926 5925 5925 5924 5924 5923 5923 5922 5921 5920 5919 5918 5917 5916 5915 5914 5913 5912 5911 5911 5910 5910 5909 5908 5907 5907 5906 5906 5905 5905 5904 5903 5903 5902 5902 5901 5900 5899 5899 5898 5897
5900 5902 5903 5904 5905 5907 5908 5909 5910 5910 5911 5912 5912 5914 5915 5916 5916 5916 5916 5916 5917 5918 5919 5919 5920 5921 5921 5923 5924 5924 5925 5925 5926 5926 5926 5926 5926 5926 5926 5925 5925 5925 5925 5925 5925 5924 5924 5923 5922 5922 5921 5920 5919 5918 5917 5916 5915 5914 5913 5912 5911 5910 5909 5909 5908 5907 5907 5906 5905 5905 5904 5903 5903 5902 5901 5901 5900 5900 5899 5899 5898 5897 5897 5897 5896
5898 5899 5901 5902 5903 5904 5905 5906 5907 5908 5908 5909 5910 5911 5912 5913 5914 5914 5914 5915 5915 5916 5917 5917 5918 5919 5920 5921 5922 5923 5923 5923 5924 5924 5924 5924 5924 5924 5924 5924 5923 5923 5923 5923 5923 5923 5923 5922 5921 5920 5919 5918 5917 5916 5915 5914 5913 5912 5911 5910 5909 5908 5907 5906 5905 5905 5904 5903 5903 5902 5902 5901 5900 5899 5899 5898 5898 5897 5897 5896 5896 5895 5895 5894 5894
5896 5897 5899 5900 5901 5901 5902 5903 5904 5905 5906 5907 5907 5908 5909 5910 5911 5912 5912 5913 5913 5914 5915 5915 5916 5917 5918 5919 5920 5921 5921 5921 5922 5923 5922 5922 5922 5922 5922 5922 5922 5922 5922 5921 5921 5921 5921 5921 5919 5918 5917 5916 5914 5914 5913 5913 5912 5911 5910 5909 5908 5906 5905 5904 5903 5902 5901 5901 5900 5900 5899 5898 5897 5896 5895 5895 5895 5894 5894 5893 5893 5892 5892 5891 5891
5893 5895 5896 5897 5898 5898 5899 5901 5902 5902 5903 5904 5905 5905 5906 5906 5907 5909 5909 5910 5911 5911 5912 5913 5913 5914 5916 5917 5918 5918 5919 5919 5920 5921 5920 5920 5920 5920 5920 5920 5920 5920 5920 5920 5919 5919 5919 5919 5918 5916 5915 5914 5913 5912 5911 5911 5910 5909 5908 5907 5906 5904 5903 5902 5900 5900 5899 5898 5898 5897 5896 5895 5894 5893 5893 5892 5892 5892 5891 5891 5890 5889 5889 5888 5888
5890 5892 5893 5894 5895 5896 5897 5898 5899 5900 5901 5902 5903 5903 5903 5904 5904 5906 5907 5908 5908 5909 5910 5910 5911 5912 5913 5915 5915 5916 5917 5917 5918 5918 5918 5918 5918 5918 5918 5918 5918 5918 5918 5918 5918 5917 5917 5917 5916 5915 5913 5913 5912 5910 5910 5909 5909 5908 5906 5905 5904 5902 5901 5900 5899 5897 5896 5895 5895 5894 5893 5892 5892 5891 5890 5889 5889 5889 5888 5887 5887 5886 5886 5885 5884
5887 5889 5890 5890 5892 5893 5894 5896 5897 5898 5899 5899 5900 5901 5901 5902 5902 5903 5904 5905 5905 5906 5907 5908 5909 5910 5911 5912 5913 5913 5914 5915 5915 5916 5916 5916 5916 5916 5916 5916 5916 5916 5916 5916 5916 5916 5915 5915 5914 5913 5912 5911 5910 5909 5908 5907 5907 5906 5905 5903 5902 5900 5899 5898 5897 5895 5894 5893 5892 5891 5890 5889 5888 5888 5887 5887 5886 5885 5885 5884 5883 5883 5883 5883 5882
5885 5886 5887 5888 5890 5891 5893 5894 5895 5895 5896 5897 5898 5899 5900 5900 5900 5901 5901 5902 5903 5904 5904 5905 5906 5908 5909 5910 5910 5911 5912 5912 5913 5913 5914 5914 5914 5914 5914 5915 5914 5914 5914 5914 5914 5914 5914 5913 5913 5912 5910 5909 5908 5907 5906 5905 5904 5903 5902 5901 5900 5898 5897 5895 5894 5893 5892 5891 5889 5888 5887 5886 5885 5884 5884 5883 5882 5882 5881 5880 5880 5880 5880 5879 5879
5883 5885 5886 5888 5889 5890 5891 5892 5892 5893 5894 5895 5896 5897 5898 5898 5898 5899 5900 5900 5901 5902 5902 5903 5904 5905 5906 5907 5908 5908 5909 5910 5911 5911 5911 5912 5912 5912 5913 5913 5913 5912 5912 5912 5912 5912 5912 5911 5911 5910 5908 5907 5906 5905 5904 5903 5902 5901 5900 5898 5897 5895 5894 5893 5891 5891 5889 5888 5887 5885 5884 5883 5882 5881 5880 5879 5879 5878 5877 5877 5877 5876 5876 5876 5876
5882 5883 5885 5887 5887 5889 5890 5890 5891 5891 5892 5893 5893 5894 5895 5896 5897 5897 5898 5898 5899 5900 5900 5901 5902 5903 5904 5905 5905 5906 5907 5908 5908 5909 5909 5910 5910 5910 5911 5911 5911 5911 5911 5911 5910 5910 5910 5909 5908 5907 5906 5905 5903 5903 5902 5901 5899 5898 5897 5896 5894 5892 5891 5890 5889 5887 5886 5885 5884 5883 5882 5880 5879 5878 5877 5876 5875 5875 5874 5874 5873 5873 5873 5872 5872
5880 5882 5883 5885 5886 5887 5888 5888 5889 5890 5891 5891 5892 5892 5893 5894 5895 5895 5895 5896 5897 5897 5898 5899 5900 5901 5902 5903 5903 5904 5904 5905 5906 5907 5907 5908 5908 5908 5909 5909 5909 5909 5909 5909 5909 5908 5908 5907 5906 5905 5904 5902 5901 5900 5899 5898 5897 5896 5894 5893 5891 5890 5888 5887 5885 5884 5883 5882 5881 5880 5879 5877 5876 5875 5874 5873 5872 5872 5871 5871 5870 5869 5869 5868 5868
5878 5879 5880 5882 5883 5885 5885 5886 5887 5889 5889 5890 5890 5890 5891 5892 5893 5893 5894 5894 5895 5895 5896 5897 5898 5899 5900 5901 5901 5901 5902 5903 5904 5904 5905 5905 5906 5906 5907 5907 5907 5907 5908 5907 5907 5907 5906 5905 5904 5903 5902 5900 5899 5897 5896 5895 5894 5892 5891 5890 5888 5886 5884 5883 5882 5880 5879 5878 5877 5876 5875 5874 5873 5871 5871 5870 5869 5869 5868 5867 5867 5866 5865 5864 5863
5873 5875 5877 5878 5880 5881 5882 5883 5885 5886 5887 5888 5888 5888 5889 5889 5890 5891 5892 5892 5892 5893 5894 5895 5896 5897 5898 5899 5899 5899 5900 5901 5902 5902 5903 5903 5903 5904 5905 5905 5906 5906 5906 5905 5905 5905 5904 5903 5902 5900 5899 5898 5896 5895 5893 5892 5891 5889 5888 5888 5886 5884 5882 5880 5878 5877 5876 5874 5873 5872 5871 5870 5869 5868 5867 5867 5866 5866 5865 5864 5863 5862 5861 5860 5860
5869 5871 5873 5875 5876 5877 5879 5881 5882 5883 5885 5886 5887 5887 5887 5888 5888 5889 5889 5890 5890 5891 5892 5893 5894 5895 5896 5896 5897 5897 5898 5899 5899 5900 5900 5901 5901 5901 5902 5903 5904 5904 5904 5903 5903 5902 5902 5901 5899 5898 5896 5895 5893 5891 5890 5888 5887 5887 5886 5885 5883 5882 5879 5877 5875 5874 5872 5871 5870 5869 5867 5866 5865 5864 5863 5863 5863 5862 5861 5861 5860 5859 5858 5857 5856
5866 5868 5869 5871 5872 5874 5876 5878 5880 5881 5882 5884 5885 5885 5885 5886 5886 5887 5887 5887 5888 5889 5890 5891 5892 5893 5893 5894 5895 5895 5896 5896 5897 5897 5898 5899 5899 5899 5900 5900 5901 5902 5902 5901 5900 5900 5899 5898 5897 5895 5894 5892 5890 5888 5886 5885 5885 5883 5882 5882 5880 5879 5877 5875 5872 5871 5869 5868 5866 5864 5863 5862 5861 5860 5859 5858 5858 5858 5857 5857 5856 5855 5854 5853 5852
5863 5865 5866 5867 5869 5870 5872 5875 5877 5879 5880 5881 5882 5882 5883 5883 5884 5885 5885 5885 5886 5887 5888 5889 5889 5890 5891 5892 5892 5893 5893 5894 5894 5895 5895 5896 5897 5897 5898 5898 5898 5899 5899 5899 5898 5897 5896 5895 5894 5892 5891 5889 5887 5885 5883 5883 5882 5880 5878 5878 5877 5875 5874 5872 5869 5867 5865 5864 5862 5860 5859 5858 5856 5855 5854 5854 5853 5853 5852 5852 5851 5850 5849 5848 5847
5859 5861 5862 5864 5865 5867 5868 5870 5873 5875 5877 5878 5879 5880 5880 5881 5881 5882 5882 5883 5883 5884 5886 5886 5887 5888 5889 5889 5890 5890 5891 5891 5892 5892 5893 5894 5895 5895 5896 5895 5895 5896 5896 5896 5896 5895 5893 5892 5891 5889 5888 5887 5885 5882 5879 5879 5879 5877 5875 5874 5873 5871 5870 5868 5866 5863 5861 5859 5858 5856 5855 5854 5852 5851 5850 5850 5849 5848 5847 5847 5846 5845 5844 5843 5842
5856 5858 5859 5861 5863 5864 5865 5866 5869 5870 5872 5874 5876 5877 5878 5878 5879 5879 5880 5880 5881 5882 5883 5884 5884 5885 5886 5887 5887 5887 5888 5888 5889 5890 5890 5891 5892 5893 5893 5893 5893 5893 5892 5893 5893 5892 5890 5889 5887 5886 5885 5883 5881 5879 5877 5875 5875 5874 5872 5871 5870 5868 5866 5864 5862 5859 5857 5855 5854 5853 5851 5850 5848 5847 5846 5846 5845 5844 5843 5841 5840 5839 5839 5838 5837
5853 5855 5857 5859 5861 5862 5863 5864 5865 5866 5868 5870 5872 5874 5876 5876 5876 5877 5877 5878 5878 5879 5880 5881 5882 5883 5883 5884 5884 5884 5885 5885 5886 5887 5888 5888 5889 5890 5891 5891 5891 5890 5889 5889 5889 5889 5887 5886 5884 5883 5881 5880 5878 5876 5874 5873 5872 5870 5868 5867 5866 5863 5861 5859 5857 5855 5853 5851 5850 5849 5848 5846 5845 5844 5842 5841 5841 5840 5838 5836 5834 5833 5832 5832 5832
5851 5852 5853 5855 5856 5858 5859 5861 5862 5863 5865 5867 5868 5869 5871 5873 5874 5874 5874 5875 5875 5876 5877 5878 5879 5880 5880 5880 5880 5881 5882 5882 5883 5884 5885 5885 5886 5887 5887 5888 5888 5887 5887 5887 5887 5886 5885 5883 5882 5880 5879 5877 5875 5873 5871 5870 5868 5865 5863 5862 5860 5858 5855 5854 5852 5850 5849 5847 5846 5845 5844 5843 5842 5840 5838 5838 5837 5836 5834 5831 5829 5828 5827 5826 5826
5847 5848 5850 5851 5852 5854 5856 5857 5859 5860 5861 5862 5863 5865 5866 5868 5870 5871 5871 5871 5872 5873 5874 5874 5876 5876 5876 5876 5877 5878 5878 5879 5880 5881 5881 5882 5882 5883 5884 5884 5884 5884 5884 5884 5883 5882 5881 5880 5879 5878 5876 5874 5872 5869 5868 5866 5864 5861 5859 5858 5855 5853 5851 5849 5847 5846 5844 5843 5842 5841 5840 5839 5838 5836 5834 5834 5833 5831 5828 5825 5823 5821 5820 5819 5818
5843 5843 5845 5848 5849 5851 5852 5852 5854 5855 5856 5857 5859 5861 5862 5864 5866 5867 5867 5867 5868 5870 5871 5871 5872 5872 5873 5873 5873 5874 5875 5876 5877 5878 5878 5879 5879 5880 5880 5880 5881 5881 5881 5881 5880 5879 5878 5876 5875 5874 5872 5870 5868 5866 5864 5862 5859 5857 5855 5853 5851 5849 5847 5845 5843 5841 5840 5839 5838 5837 5836 5836 5833 5831 5830 5828 5827 5825 5822 5819 5816 5813 5811 5811 5811
5839 5839 5841 5843 5845 5845 5846 5848 5849 5850 5851 5853 5855 5856 5858 5859 5861 5863 5863 5864 5865 5866 5867 5868 5868 5868 5869 5869 5869 5870 5871 5872 5873 5874 5875 5875 5876 5876 5876 5876 5876 5877 5877 5877 5876 5875 5874 5873 5871 5870 5868 5866 5864 5862 5860 5858 5855 5852 5849 5848 5847 5845 5843 5841 5839 5838 5836 5835 5834 5833 5832 5831 5829 5827 5825 5823 5821 5820 5817 5813 5811 5809 5807 5806 5806
5834 5835 5837 5839 5840 5841 5842 5844 5845 5846 5848 5849 5850 5852 5853 5855 5856 5858 5859 5860 5861 5862 5863 5864 5865 5865 5865 5865 5866 5867 5868 5869 5870 5871 5871 5872 5873 5872 5872 5872 5872 5872 5872 5872 5872 5871 5869 5868 5867 5866 5864 5862 5861 5859 5858 5855 5852 5847 5844 5844 5844 5842 5839 5837 5835 5834 5832 5831 5830 5828 5827 5826 5825 5822 5820 5818 5816 5815 5812 5809 5806 5806 5805 5804 5802
5829 5830 5832 5834 5835 5836 5838 5839 5841 5842 5844 5845 5846 5848 5849 5850 5851 5853 5855 5856 5856 5857 5858 5860 5861 5861 5861 5862 5862 5863 5864 5865 5866 5867 5868 5869 5869 5869 5869 5868 5868 5868 5867 5867 5867 5866 5864 5863 5862 5861 5859 5858 5858 5856 5855 5852 5848 5843 5841 5841 5839 5837 5835 5834 5832 5829 5828 5826 5825 5823 5822 5821 5820 5817 5815 5813 5811 5810 5808 5805 5803 5802 5801 5800 5798
5826 5826 5827 5828 5829 5830 5832 5834 5836 5837 5840 5842 5842 5843 5844 5845 5846 5848 5850 5851 5852 5853 5854 5856 5857 5858 5858 5858 5859 5860 5860 5861 5862 5864 5865 5865 5865 5865 5865 5864 5864 5864 5863 5863 5862 5861 5860 5859 5858 5857 5855 5855 5854 5853 5851 5848 5844 5840 5838 5836 5834 5832 5831 5829 5827 5824 5823 5822 5821 5819 5817 5816 5815 5813 5811 5808 5806 5805 5803 5801 5799 5798 5797 5796 5794
5821 5821 5822 5822 5823 5823 5825 5828 5831 5833 5835 5837 5837 5838 5840 5840 5841 5843 5845 5846 5847 5849 5850 5852 5853 5854 5854 5855 5856 5857 5857 5858 5859 5860 5861 5861 5861 5861 5861 5861 5860 5860 5860 5859 5859 5858 5857 5856 5854 5853 5852 5851 5851 5849 5846 5843 5840 5837 5835 5833 5830 5829 5827 5825 5822 5820 5818 5817 5816 5815 5812 5811 5809 5808 5806 5804 5802 5801 5799 5797 5795 5794 5792 5790 5788
5815 5815 5816 5816 5816 5816 5817 5820 5826 5830 5831 5831 5832 5834 5834 5835 5837 5838 5839 5841 5842 5844 5846 5848 5849 5851 5852 5852 5853 5854 5854 5855 5855 5856 5857 5857 5857 5857 5857 5857 5857 5857 5857 5856 5855 5854 5853 5852 5850 5849 5848 5847 5846 5844 5842 5839 5836 5834 5831 5829 5827 5825 5822 5821 5819 5816 5814 5812 5811 5809 5807 5806 5804 5802 5801 5800 5799 5797 5795 5793 5790 5788 5786 5784 5782
5805 5807 5809 5809 5810 5810 5810 5812 5818 5823 5825 5825 5827 5829 5829 5830 5832 5833 5833 5835 5838 5840 5842 5844 5846 5847 5848 5849 5850 5850 5851 5851 5852 5852 5853 5854 5854 5854 5854 5854 5854 5853 5853 5852 5851 5850 5848 5847 5846 5845 5844 5843 5841 5839 5836 5834 5832 5830 5828 5825 5823 5820 5818 5816 5815 5812 5810 5808 5806 5804 5802 5801 5800 5798 5796 5795 5794 5792 5790 5787 5785 5782 5780 5778 5776
5795 5798 5800 5801 5803 5804 5804 5805 5809 5814 5816 5817 5820 5823 5823 5824 5825 5827 5828 5830 5832 5835 5837 5839 5841 5843 5844 5846 5847 5847 5847 5848 5848 5849 5849 5850 5850 5851 5851 5851 5850 5850 5849 5848 5846 5845 5844 5842 5841 5840 5839 5837 5836 5833 5831 5829 5827 5825 5823 5821 5818 5816 5814 5812 5810 5808 5806 5803 5802 5800 5798 5797 5795 5794 5792 5790 5788 5786 5784 5781 5779 5776 5774 5772 5770
5788 5791 5792 5794 5797 5798 5799 5800 5802 5804 5805 5808 5811 5814 5815 5817 5818 5821 5823 5824 5826 5829 5832 5835 5837 5839 5840 5842 5843 5843 5843 5843 5844 5845 5845 5845 5846 5847 5847 5846 5846 5845 5844 5842 5841 5840 5839 5837 5836 5834 5833 5832 5830 5828 5825 5823 5822 5820 5818 5815 5813 5811 5809 5807 5805 5803 5801 5799 5797 5795 5794 5792 5791 5789 5787 5785 5782 5780 5778 5775 5773 5771 5769 5767 5764
5783 5785 5787 5789 5791 5791 5792 5793 5795 5795 5796 5799 5802 5804 5805 5808 5811 5814 5816 5818 5820 5823 5827 5830 5832 5834 5836 5837 5837 5837 5838 5839 5840 5841 5840 5841 5841 5842 5842 5841 5840 5839 5838 5837 5836 5835 5834 5832 5830 5829 5828 5827 5825 5823 5820 5818 5816 5814 5812 5810 5808 5806 5804 5802 5800 5798 5796 5794 5792 5790 5789 5787 5785 5783 5781 5778 5776 5774 5772 5770 5768 5766 5764 5761 5759
5778 5781 5782 5783 5783 5784 5784 5786 5787 5786 5787 5788 5790 5793 5797 5799 5802 5805 5808 5810 5813 5816 5820 5823 5826 5829 5830 5830 5830 5832 5833 5833 5834 5834 5834 5835 5836 5837 5837 5836 5834 5834 5833 5832 5832 5831 5828 5827 5826 5825 5824 5822 5820 5818 5816 5814 5811 5809 5807 5806 5804 5802 5800 5797 5795 5793 5791 5789 5787 5785 5784 5782 5780 5778 5775 5773 5771 5769 5766 5765 5763 5761 5758 5755 5752
5773 5774 5776 5777 5777 5777 5778 5779 5780 5781 5782 5782 5782 5783 5787 5789 5792 5795 5799 5803 5806 5809 5813 5817 5821 5823 5824 5824 5824 5826 5827 5827 5828 5828 5829 5831 5832 5832 5831 5830 5829 5829 5829 5828 5827 5826 5824 5823 5822 5821 5819 5817 5815 5813 5811 5809 5806 5804 5803 5801 5799 5797 5795 5792 5790 5788 5786 5784 5782 5781 5779 5777 5775 5773 5771 5768 5766 5764 5761 5759 5758 5755 5752 5749 5746
5766 5768 5770 5771 5771 5771 5771 5772 5774 5775 5777 5777 5776 5775 5778 5781 5784 5787 5792 5796 5800 5803 5807 5811 5814 5816 5817 5817 5818 5820 5820 5821 5823 5824 5825 5826 5827 5826 5825 5825 5825 5825 5824 5823 5822 5821 5820 5819 5818 5817 5815 5812 5810 5808 5806 5804 5801 5799 5798 5796 5793 5791 5789 5786 5784 5782 5781 5779 5777 5776 5774 5772 5770 5768 5766 5763 5761 5758 5756 5755 5752 5750 5746 5743 5741
5760 5762 5764 5764 5764 5765 5766 5767 5768 5767 5766 5767 5767 5768 5771 5775 5777 5780 5785 5790 5794 5797 5800 5804 5807 5808 5810 5812 5813 5814 5815 5817 5818 5819 5820 5821 5821 5820 5820 5821 5821 5820 5819 5818 5817 5816 5815 5814 5813 5812 5810 5808 5805 5804 5801 5798 5796 5794 5792 5790 5788 5785 5783 5781 5779 5777 5775 5774 5772 5770 5769 5767 5765 5763 5760 5758 5756 5754 5752 5750 5747 5743 5740 5737 5735
5756 5757 5759 5759 5759 5760 5761 5762 5762 5762 5760 5760 5760 5761 5763 5767 5769 5771 5775 5780 5785 5789 5793 5797 5800 5802 5804 5806 5808 5809 5811 5812 5813 5814 5815 5815 5815 5815 5816 5817 5816 5815 5814 5814 5813 5812 5811 5809 5808 5806 5804 5802 5800 5798 5795 5793 5791 5789 5787 5785 5782 5780 5778 5776 5774 5771 5769 5767 5766 5765 5763 5762 5759 5757 5755 5753 5750 5748 5745 5743 5739 5736 5734 5731 5729
5751 5752 5753 5754 5753 5753 5753 5753 5754 5754 5755 5754 5754 5754 5756 5759 5762 5763 5765 5770 5775 5782 5787 5791 5794 5797 5799 5801 5803 5804 5806 5806 5807 5808 5809 5810 5810 5810 5811 5811 5810 5809 5809 5808 5807 5807 5805 5804 5802 5800 5798 5796 5794 5792 5790 5787 5785 5783 5781 5779 5776 5774 5772 5770 5768 5766 5764 5762 5760 5759 5758 5756 5753 5751 5749 5746 5744 5741 5739 5736 5733 5731 5729 5726 5723
5745 5746 5746 5747 5747 5746 5746 5746 5745 5746 5746 5746 5747 5748 5750 5753 5757 5758 5759 5763 5769 5776 5782 5786 5789 5791 5793 5795 5797 5798 5799 5801 5802 5803 5804 5805 5805 5805 5805 5804 5804 5804 5803 5803 5802 5801 5799 5798 5796 5794 5793 5791 5788 5786 5784 5782 5779 5777 5775 5773 5771 5769 5767 5764 5762 5760 5758 5757 5755 5753 5752 5750 5747 5744 5742 5740 5738 5736 5734 5732 5729 5727 5724 5721 5718
5739 5739 5739 5740 5741 5741 5740 5740 5739 5737 5737 5738 5742 5745 5747 5750 5753 5754 5755 5758 5764 5771 5776 5779 5783 5786 5788 5790 5791 5792 5794 5795 5797 5798 5799 5799 5799 5799 5799 5799 5799 5798 5798 5796 5795 5794 5793 5791 5790 5788 5786 5785 5782 5780 5778 5776 5774 5772 5770 5768 5766 5764 5762 5759 5757 5755 5753 5752 5750 5748 5746 5743 5740 5738 5737 5737 5735 5733 5731 5728 5725 5722 5719 5716 5713